sat.trackr.live / text

‹ back to catalog

STARLINK-31006

NORAD 59024 · 2024-038B

PAYLOAD ACTIVE UNKNOWN

§ Identity

Operator
Country
US
Launch date
2024-02-25
Launch site
AFETR
Launch vehicle
Mass (kg)
RCS (m²)

Purposes: comms

External: N2YO · Heavens-Above · Gunter

§ Orbital elements

Epoch: 2026-05-24T18:04:38.845632Z

Period
94.27 min
Inclination
42.9995°
Eccentricity
0.0000939
Mean motion
15.27573163 rev/d
Perigee alt
482.4 km
Apogee alt
483.7 km
Semi-major
6,861.2 km
B*
2.1085e-5
RAAN
267.0449°
Arg perigee
266.5699°
Mean anomaly
93.5045°
Rev number
12,697

§ Raw data

STARLINK-310061 59024U 24038B   26144.75322738  .00000318  00000+0  21085-4 0  99922 59024  42.9995 267.0449 0000939 266.5699  93.5045 15.27573163126977

JSON: /api/v1/satellites/59024 · /tle

For live sub-satellite position, see the globe view (requires WebGL).

§ Visibility from observer

Set your observer location to see the next 7 days of passes ≥ 10°. The values pass through the URL so the page stays shareable.

No JS? Fill the form by hand. The geolocation button needs JavaScript.